Location: Unspecified
(0.0000°N, 0.0000°E)
Time: 06:31:29
(UTC+02:00)

GP-B - Visible Passes

Search period start: 25 September 2017 00:00
Search period end: 05 October 2017 00:00
Orbit: 632 x 636 km, 89.8° (Epoch: 24 September)

Date Brightness Start Highest point End Pass type
(mag) Time Alt. Az. Time Alt. Az. Time Alt. Az.
27 Sep 5.0 21:10:34 17° SSE 21:10:34 17° SSE 21:11:40 10° SSE visible
28 Sep 3.0 21:24:52 10° N 21:29:31 81° S 21:33:45 10° S visible
29 Sep 4.5 21:46:58 10° NNW 21:51:03 37° W 21:55:09 10° SSW visible
30 Sep 4.4 20:32:33 10° NE 20:35:46 20° E 20:39:00 10° SE visible
30 Sep 5.9 22:10:03 10° NW 22:12:48 16° W 22:15:32 10° SW visible
01 Oct 3.3 20:53:16 10° NNE 20:57:30 45° E 21:01:45 10° SSE visible
02 Oct 3.2 21:14:50 10° N 21:19:14 73° W 21:23:41 10° S visible
03 Oct 4.9 21:37:07 10° NNW 21:40:59 30° W 21:44:54 10° SSW visible
04 Oct 4.2 20:22:08 10° NE 20:25:43 24° E 20:29:17 10° SSE visible
04 Oct 6.2 22:00:37 10° WNW 22:02:44 13° W 22:04:51 10° WSW visible
